�������l�o���
Date,Time,MP-1(��Sv/h),MP-2(��Sv/h),MP-3(��Sv/h),MP-4(��Sv/h),MP-5(��Sv/h),MP-6(��Sv/h),MP-7(��Sv/h),MP-8(��Sv/h),����,����(m/s),���J
2021/02/08,00:00,0.670,0.965,0.612,1.220,0.861,0.381,0.672,0.635,�k�k��,1.7,��
2021/02/08,00:10,0.668,0.965,0.611,1.221,0.863,0.380,0.675,0.634,�k,2.2,��
2021/02/08,00:20,0.669,0.964,0.613,1.219,0.861,0.380,0.673,0.634,�k�k��,3.3,��
2021/02/08,00:30,0.670,0.966,0.613,1.219,0.862,0.380,0.674,0.634,�k�k��,3.1,��
2021/02/08,00:40,0.669,0.968,0.612,1.218,0.863,0.380,0.675,0.633,�k,2.8,��
2021/02/08,00:50,0.669,0.964,0.612,1.219,0.861,0.380,0.674,0.632,�k�k��,2.5,��
2021/02/08,01:00,0.669,0.965,0.614,1.220,0.861,0.380,0.673,0.632,�k,3.0,��
2021/02/08,01:10,0.668,0.967,0.613,1.220,0.862,0.381,0.673,0.634,�k�k��,2.2,��
2021/02/08,01:20,0.672,0.966,0.613,1.219,0.864,0.381,0.674,0.634,�k,2.3,��
2021/02/08,01:30,0.669,0.965,0.612,1.220,0.862,0.382,0.672,0.634,�k�k��,1.9,��
2021/02/08,01:40,0.670,0.966,0.611,1.219,0.862,0.380,0.675,0.635,�k,2.0,��
2021/02/08,01:50,0.670,0.965,0.613,1.219,0.863,0.382,0.673,0.632,�k�k��,2.6,��
2021/02/08,02:00,0.670,0.967,0.613,1.219,0.861,0.379,0.675,0.634,�k,2.9,��
2021/02/08,02:10,0.670,0.967,0.613,1.219,0.861,0.379,0.675,0.634,�k,2.3,��
2021/02/08,02:20,0.669,0.964,0.613,1.217,0.860,0.380,0.674,0.632,�k,2.8,��
2021/02/08,02:30,0.670,0.965,0.612,1.220,0.861,0.382,0.673,0.635,�k,2.3,��
2021/02/08,02:40,0.670,0.965,0.612,1.220,0.861,0.382,0.673,0.635,�k,2.0,��
2021/02/08,02:50,0.670,0.965,0.613,1.218,0.861,0.381,0.674,0.634,�k,3.2,��
2021/02/08,03:00,0.668,0.965,0.611,1.221,0.862,0.381,0.672,0.634,�k,4.2,��
2021/02/08,03:10,0.669,0.967,0.613,1.222,0.862,0.382,0.673,0.633,�k�k��,3.7,��
2021/02/08,03:20,0.667,0.965,0.612,1.219,0.861,0.381,0.673,0.633,�k,2.8,��
2021/02/08,03:30,0.668,0.967,0.611,1.219,0.862,0.381,0.672,0.635,�k,2.5,��
2021/02/08,03:40,0.670,0.964,0.612,1.218,0.858,0.381,0.674,0.632,�k,0.8,��
2021/02/08,03:50,0.669,0.963,0.612,1.216,0.860,0.381,0.673,0.635,�k�k��,0.9,��
2021/02/08,04:00,0.670,0.965,0.613,1.219,0.862,0.383,0.672,0.634,�k,1.2,��
2021/02/08,04:10,0.669,0.965,0.613,1.220,0.859,0.379,0.673,0.634,�k�k��,1.2,��
2021/02/08,04:20,0.671,0.965,0.612,1.217,0.861,0.380,0.674,0.632,�k�k��,2.0,��
2021/02/08,04:30,0.669,0.963,0.613,1.220,0.862,0.382,0.673,0.635,���k��,2.6,��
2021/02/08,04:40,0.669,0.965,0.611,1.220,0.862,0.381,0.672,0.634,���k��,3.1,��
2021/02/08,04:50,0.668,0.964,0.610,1.219,0.859,0.379,0.673,0.634,�k��,4.4,��
2021/02/08,05:00,0.670,0.965,0.613,1.220,0.862,0.381,0.672,0.633,���k��,3.7,��
2021/02/08,05:10,0.669,0.965,0.611,1.219,0.862,0.381,0.673,0.632,�k��,2.8,��
2021/02/08,05:20,0.669,0.965,0.612,1.219,0.860,0.381,0.672,0.635,�k��,2.8,��
2021/02/08,05:30,0.668,0.962,0.611,1.218,0.859,0.380,0.674,0.633,�k��,3.6,��
2021/02/08,05:40,0.668,0.963,0.611,1.220,0.861,0.381,0.673,0.633,���k��,2.0,��
2021/02/08,05:50,0.668,0.962,0.612,1.217,0.860,0.380,0.671,0.634,��,1.2,��
2021/02/08,06:00,0.667,0.965,0.610,1.222,0.860,0.380,0.673,0.633,-,CALM,��
2021/02/08,06:10,0.668,0.966,0.611,1.219,0.861,0.381,0.671,0.633,�k�k��,1.2,��
2021/02/08,06:20,0.668,0.965,0.613,1.220,0.859,0.380,0.672,0.634,�k,1.2,��
2021/02/08,06:30,0.669,0.963,0.611,1.217,0.861,0.380,0.673,0.633,�k��,3.2,��
2021/02/08,06:40,0.667,0.964,0.611,1.218,0.860,0.379,0.672,0.635,�k��,0.9,��
2021/02/08,06:50,0.669,0.963,0.613,1.217,0.860,0.381,0.672,0.633,-,CALM,��
2021/02/08,07:00,0.668,0.964,0.612,1.217,0.860,0.381,0.672,0.632,�k�k��,0.6,��
2021/02/08,07:10,0.667,0.963,0.612,1.218,0.861,0.380,0.672,0.632,-,CALM,��
2021/02/08,07:20,0.668,0.962,0.611,1.218,0.860,0.379,0.674,0.633,���k��,0.8,��
2021/02/08,07:30,0.668,0.965,0.612,1.219,0.862,0.380,0.672,0.633,��,0.8,��
2021/02/08,07:40,0.668,0.965,0.612,1.218,0.860,0.380,0.673,0.634,��,2.0,��
2021/02/08,07:50,0.668,0.964,0.612,1.218,0.860,0.379,0.673,0.633,���k��,4.4,��
2021/02/08,08:00,0.667,0.964,0.611,1.216,0.859,0.380,0.673,0.633,���k��,6.1,��
2021/02/08,08:10,0.668,0.964,0.610,1.219,0.858,0.380,0.672,0.634,��,6.4,��
2021/02/08,08:20,0.670,0.963,0.610,1.219,0.861,0.379,0.674,0.633,���k��,9.4,��
2021/02/08,08:30,0.667,0.962,0.612,1.219,0.859,0.380,0.673,0.633,���k��,8.9,��
2021/02/08,08:40,0.669,0.960,0.610,1.216,0.858,0.380,0.675,0.634,��,11.3,��
2021/02/08,08:50,0.670,0.964,0.611,1.221,0.859,0.378,0.673,0.632,���k��,9.9,��
2021/02/08,09:00,0.668,0.965,0.613,1.219,0.859,0.380,0.675,0.633,���k��,10.2,��
2021/02/08,09:10,0.668,0.962,0.612,1.219,0.860,0.377,0.675,0.633,��,9.1,��
2021/02/08,09:20,0.669,0.962,0.612,1.218,0.859,0.378,0.674,0.635,��,11.4,��
2021/02/08,09:30,0.669,0.961,0.611,1.219,0.858,0.379,0.674,0.634,��,12.1,��
2021/02/08,09:40,0.668,0.964,0.613,1.218,0.858,0.377,0.674,0.634,��,13.9,��
2021/02/08,09:50,0.669,0.961,0.612,1.220,0.859,0.379,0.673,0.634,��,13.1,��
2021/02/08,10:00,0.671,0.963,0.611,1.221,0.857,0.380,0.674,0.634,��,12.2,��
2021/02/08,10:10,0.671,0.960,0.612,1.221,0.859,0.380,0.673,0.634,��,10.0,��
2021/02/08,10:20,0.669,0.961,0.610,1.219,0.862,0.379,0.673,0.633,���k��,8.9,��
2021/02/08,10:30,0.670,0.964,0.613,1.219,0.861,0.381,0.674,0.635,��,9.2,��
2021/02/08,10:40,0.671,0.961,0.613,1.222,0.859,0.380,0.674,0.634,��,8.8,��
2021/02/08,10:50,0.671,0.962,0.613,1.221,0.862,0.380,0.673,0.635,��,9.0,��
2021/02/08,11:00,0.670,0.966,0.612,1.218,0.858,0.379,0.674,0.635,��,8.5,��
2021/02/08,11:10,0.670,0.961,0.611,1.219,0.861,0.380,0.672,0.635,���k��,8.6,��
2021/02/08,11:20,0.671,0.964,0.614,1.222,0.862,0.382,0.672,0.634,���k��,12.7,��
2021/02/08,11:30,0.668,0.963,0.613,1.218,0.862,0.382,0.671,0.636,���k��,10.5,��
2021/02/08,11:40,0.669,0.964,0.612,1.222,0.863,0.381,0.673,0.635,���k��,4.8,��
2021/02/08,11:50,0.670,0.966,0.612,1.221,0.863,0.381,0.671,0.635,�k��,5.7,��
2021/02/08,12:00,0.670,0.966,0.614,1.219,0.863,0.382,0.671,0.634,�k��,8.6,��
2021/02/08,12:10,0.668,0.968,0.612,1.221,0.861,0.380,0.672,0.635,�k��,7.3,��
2021/02/08,12:20,0.670,0.966,0.612,1.221,0.861,0.379,0.674,0.635,�k��,10.3,��
2021/02/08,12:30,0.671,0.963,0.614,1.220,0.863,0.380,0.673,0.635,�k��,12.7,��
2021/02/08,12:40,0.671,0.967,0.613,1.220,0.862,0.380,0.674,0.635,���k��,10.3,��
2021/02/08,12:50,0.671,0.965,0.612,1.220,0.863,0.381,0.676,0.634,���k��,7.5,��
2021/02/08,13:00,0.672,0.965,0.614,1.221,0.862,0.378,0.673,0.636,�k��,8.3,��
2021/02/08,13:10,0.671,0.967,0.615,1.222,0.863,0.380,0.673,0.635,���k��,11.6,��
2021/02/08,13:20,0.672,0.968,0.615,1.221,0.865,0.380,0.673,0.638,�k��,11.7,��
2021/02/08,13:30,0.671,0.969,0.614,1.221,0.864,0.379,0.671,0.636,���k��,9.6,��
2021/02/08,13:40,0.672,0.968,0.613,1.222,0.866,0.382,0.674,0.635,���k��,7.9,��
2021/02/08,13:50,0.672,0.968,0.615,1.221,0.861,0.381,0.673,0.636,��,8.8,��
2021/02/08,14:00,0.670,0.968,0.613,1.220,0.862,0.381,0.675,0.634,���k��,7.4,��
2021/02/08,14:10,0.671,0.966,0.614,1.222,0.864,0.380,0.675,0.633,�k��,7.8,��
2021/02/08,14:20,0.671,0.966,0.613,1.220,0.864,0.382,0.673,0.633,�k��,4.6,��
2021/02/08,14:30,0.673,0.969,0.614,1.222,0.864,0.381,0.675,0.631,��,9.3,��
2021/02/08,14:40,0.672,0.968,0.615,1.222,0.863,0.382,0.674,0.633,��,7.0,��
2021/02/08,14:50,0.671,0.967,0.615,1.224,0.864,0.382,0.676,0.632,��,7.9,��
2021/02/08,15:00,0.672,0.970,0.615,1.223,0.862,0.381,0.675,0.633,���쐼,5.5,��
2021/02/08,15:10,0.675,0.968,0.613,1.222,0.862,0.383,0.675,0.632,�k�k��,3.6,��
2021/02/08,15:20,0.671,0.966,0.615,1.222,0.864,0.382,0.675,0.634,�k��,5.0,��
2021/02/08,15:30,0.673,0.966,0.614,1.222,0.862,0.380,0.677,0.635,�k��,4.6,��
2021/02/08,15:40,0.672,0.968,0.615,1.222,0.864,0.381,0.676,0.635,��,8.0,��
2021/02/08,15:50,0.672,0.971,0.615,1.222,0.863,0.381,0.674,0.636,��,9.5,��
2021/02/08,16:00,0.672,0.972,0.614,1.224,0.862,0.380,0.677,0.634,��,8.8,��
2021/02/08,16:10,0.670,0.970,0.613,1.221,0.862,0.381,0.673,0.634,��,8.5,��
2021/02/08,16:20,0.671,0.969,0.614,1.223,0.861,0.382,0.676,0.636,��,7.9,��
2021/02/08,16:30,0.670,0.967,0.614,1.222,0.862,0.381,0.675,0.635,���쐼,6.1,��
2021/02/08,16:40,0.670,0.969,0.613,1.223,0.861,0.382,0.674,0.635,��,5.4,��
2021/02/08,16:50,0.669,0.966,0.614,1.220,0.863,0.382,0.675,0.635,���쐼,5.4,��
2021/02/08,17:00,0.670,0.968,0.613,1.223,0.861,0.381,0.674,0.633,��,5.6,��
2021/02/08,17:10,0.672,0.968,0.613,1.222,0.863,0.379,0.674,0.634,��,6.0,��
2021/02/08,17:20,0.669,0.969,0.614,1.221,0.864,0.380,0.675,0.633,��,7.4,��
2021/02/08,17:30,0.670,0.968,0.609,1.224,0.864,0.380,0.676,0.635,��,7.4,��
2021/02/08,17:40,0.671,0.967,0.611,1.223,0.864,0.380,0.674,0.633,��,5.9,��
2021/02/08,17:50,0.671,0.967,0.612,1.222,0.863,0.379,0.674,0.635,��,7.2,��
2021/02/08,18:00,0.672,0.968,0.611,1.223,0.863,0.381,0.672,0.636,��,7.3,��
2021/02/08,18:10,0.670,0.968,0.612,1.224,0.861,0.380,0.673,0.634,���k��,8.0,��
2021/02/08,18:20,0.671,0.966,0.612,1.221,0.862,0.380,0.674,0.635,���k��,6.8,��
2021/02/08,18:30,0.669,0.966,0.613,1.221,0.863,0.380,0.675,0.634,���k��,6.2,��
2021/02/08,18:40,0.669,0.969,0.611,1.223,0.863,0.381,0.674,0.634,���k��,3.7,��
2021/02/08,18:50,0.671,0.967,0.612,1.222,0.862,0.380,0.673,0.633,��,2.8,��
2021/02/08,19:00,0.670,0.968,0.612,1.222,0.863,0.380,0.675,0.633,���k��,4.4,��
2021/02/08,19:10,0.671,0.969,0.613,1.222,0.862,0.382,0.673,0.634,���k��,4.6,��
2021/02/08,19:20,0.670,0.966,0.614,1.222,0.867,0.382,0.674,0.634,���k��,5.0,�L
2021/02/08,19:30,0.671,0.966,0.615,1.222,0.863,0.380,0.673,0.633,�k��,4.3,�L
2021/02/08,19:40,0.671,0.967,0.614,1.222,0.864,0.381,0.673,0.635,���k��,7.7,�L
2021/02/08,19:50,0.672,0.969,0.613,1.222,0.864,0.383,0.675,0.636,���k��,8.9,�L
2021/02/08,20:00,0.673,0.967,0.614,1.222,0.865,0.384,0.673,0.635,���k��,9.3,�L
2021/02/08,20:10,0.670,0.969,0.615,1.222,0.864,0.384,0.675,0.634,���k��,10.2,�L
2021/02/08,20:20,0.670,0.971,0.614,1.222,0.864,0.385,0.674,0.635,���k��,6.5,�L
2021/02/08,20:30,0.670,0.967,0.613,1.223,0.863,0.386,0.674,0.634,��,4.6,�L
2021/02/08,20:40,0.671,0.970,0.614,1.221,0.861,0.385,0.674,0.634,���k��,4.2,�L
2021/02/08,20:50,0.670,0.966,0.611,1.220,0.860,0.384,0.672,0.635,�k��,5.0,��
2021/02/08,21:00,0.671,0.970,0.612,1.222,0.860,0.383,0.672,0.632,�k��,3.9,��
2021/02/08,21:10,0.670,0.966,0.613,1.218,0.859,0.382,0.671,0.634,�k��,6.6,�L
2021/02/08,21:20,0.668,0.965,0.614,1.219,0.859,0.382,0.671,0.634,�k��,7.1,��
2021/02/08,21:30,0.669,0.968,0.612,1.219,0.855,0.381,0.673,0.633,���k��,6.7,��
2021/02/08,21:40,0.669,0.966,0.610,1.219,0.856,0.380,0.670,0.632,���k��,7.4,��
2021/02/08,21:50,0.669,0.964,0.610,1.217,0.856,0.379,0.671,0.632,���k��,7.7,��
2021/02/08,22:00,0.670,0.965,0.609,1.215,0.855,0.379,0.670,0.632,���k��,7.7,��
2021/02/08,22:10,0.670,0.965,0.609,1.218,0.858,0.378,0.670,0.632,���k��,6.6,��
2021/02/08,22:20,0.671,0.964,0.609,1.216,0.856,0.378,0.670,0.633,�k��,5.9,��
2021/02/08,22:30,0.669,0.965,0.610,1.218,0.854,0.380,0.673,0.632,���k��,5.3,��
2021/02/08,22:40,0.669,0.966,0.609,1.217,0.855,0.381,0.669,0.630,���k��,6.8,�L
2021/02/08,22:50,0.670,0.967,0.610,1.216,0.857,0.379,0.671,0.632,�k��,8.2,�L
2021/02/08,23:00,0.668,0.965,0.612,1.216,0.857,0.379,0.672,0.632,�k��,6.8,��
2021/02/08,23:10,0.669,0.967,0.609,1.216,0.855,0.379,0.671,0.632,�k��,6.4,�L
2021/02/08,23:20,0.669,0.964,0.610,1.217,0.855,0.380,0.672,0.631,�k��,6.0,�L
2021/02/08,23:30,0.670,0.967,0.612,1.214,0.853,0.379,0.670,0.631,�k��,6.2,�L
2021/02/08,23:40,0.669,0.966,0.609,1.217,0.854,0.379,0.671,0.631,�k��,6.4,�L
2021/02/08,23:50,0.668,0.964,0.611,1.216,0.854,0.379,0.670,0.631,���k��,7.3,�L
